Weather History for Princeton, MN

Change the Weather History Date:

Friday, November 30, 2012

  Actual Average Record
Temperature  
Mean Temperature 28 °F -  
Max Temperature 33 °F 32 °F 42 °F (2003)
Min Temperature 24 °F 18 °F 0 °F (2007)
Degree Days  
Heating Degree Days 36    
Moisture  
Dew Point 25 °F    
Average Humidity 83    
Maximum Humidity 93    
Minimum Humidity 80    
Precipitation  
Precipitation 0.00 in - - ()
Sea Level Pressure  
Sea Level Pressure 30.12 in    
Wind  
Wind Speed 7 mph (East)    
Max Wind Speed 12 mph    
Max Gust Speed 17 mph    
Visibility 8 miles    
Events      
Averages and records for this station are not official NWS values.
T = Trace of Precipitation, MM = Missing Value Source: NWS Daily Summary

Daily Weather History Graph

Daily Weather History Graph

Search for Another Location

Airport:

Trip Planner

Search our weather history database for the weather conditions in past years. The results will help you decide how hot, cold, wet, or windy it might be!

Date:

Astronomy

Nov. 30, 2012 Rise Set
Actual Time 7:33 AM CST 4:32 PM CST
Civil Twilight 7:00 AM CST 5:06 PM CST
Nautical Twilight 6:23 AM CST 5:43 PM CST
Astronomical Twilight 5:47 AM CST 6:18 PM CST
Moon 6:28 PM CST (11/30) 9:05 AM CST (11/30)
Length of Visible Light 10h 05m
Length of Day
8h 58m
Waning Gibbous, 96% of the Moon is Illuminated
Nov 30
Waning Gibbous
Dec 6
Last Quarter
Dec 13
New
Dec 19
First Quarter
Dec 28
Full

Hourly Weather History & Observations

Time (CST) Temp. Windchill Dew Point Humidity Pressure Visibility Wind Dir Wind Speed Gust Speed Precip Events Conditions
12:11 AM 26.6 °F 19.1 °F 21.2 °F 80% 30.13 in 10.0 mi NNE 6.9 mph - N/A   Scattered Clouds
12:32 AM 24.8 °F 17.9 °F 21.2 °F 86% 30.13 in 10.0 mi NNE 5.8 mph - N/A   Mostly Cloudy
12:51 AM 26.6 °F 18.2 °F 21.2 °F 80% 30.12 in 10.0 mi NE 8.1 mph - N/A   Mostly Cloudy
1:11 AM 26.6 °F 16.8 °F 21.2 °F 80% 30.11 in 10.0 mi NE 10.4 mph - N/A   Mostly Cloudy
1:32 AM 26.6 °F 17.5 °F 21.2 °F 80% 30.12 in 10.0 mi NE 9.2 mph - N/A   Overcast
1:51 AM 26.6 °F 18.2 °F 21.2 °F 80% 30.11 in 10.0 mi NNE 8.1 mph - N/A   Overcast
2:11 AM 26.6 °F 17.5 °F 21.2 °F 80% 30.11 in 10.0 mi NE 9.2 mph - N/A   Mostly Cloudy
2:32 AM 26.6 °F 18.2 °F 23.0 °F 86% 30.12 in 10.0 mi NNE 8.1 mph - N/A   Mostly Cloudy
2:51 AM 26.6 °F 17.5 °F 23.0 °F 86% 30.13 in 10.0 mi NE 9.2 mph - N/A   Overcast
3:11 AM 26.6 °F 20.0 °F 23.0 °F 86% 30.13 in 10.0 mi NE 5.8 mph - N/A   Overcast
3:51 AM 26.6 °F 17.5 °F 23.0 °F 86% 30.12 in 10.0 mi NE 9.2 mph - N/A   Overcast
4:11 AM 26.6 °F 17.5 °F 23.0 °F 86% 30.12 in 10.0 mi NE 9.2 mph - N/A   Overcast
4:32 AM 26.6 °F 20.0 °F 24.8 °F 93% 30.13 in 7.0 mi NE 5.8 mph - N/A   Overcast
4:51 AM 26.6 °F 16.8 °F 24.8 °F 93% 30.14 in 10.0 mi NE 10.4 mph - N/A   Overcast
5:11 AM 26.6 °F 19.1 °F 23.0 °F 86% 30.13 in 10.0 mi NE 6.9 mph - N/A   Overcast
5:51 AM 26.6 °F 17.5 °F 23.0 °F 86% 30.13 in 10.0 mi NE 9.2 mph - N/A   Overcast
6:11 AM 26.6 °F 20.0 °F 23.0 °F 86% 30.14 in 10.0 mi NE 5.8 mph - N/A   Overcast
6:32 AM 26.6 °F 19.1 °F 23.0 °F 86% 30.14 in 10.0 mi ENE 6.9 mph - N/A   Overcast
6:51 AM 26.6 °F 18.2 °F 23.0 °F 86% 30.15 in 10.0 mi NE 8.1 mph - N/A   Overcast
7:11 AM 26.6 °F 19.1 °F 23.0 °F 86% 30.14 in 10.0 mi ENE 6.9 mph - N/A   Overcast
7:32 AM 26.6 °F 19.1 °F 23.0 °F 86% 30.15 in 10.0 mi NNE 6.9 mph - N/A   Overcast
7:51 AM 26.6 °F 20.0 °F 21.2 °F 80% 30.15 in 10.0 mi NE 5.8 mph - N/A   Overcast
8:11 AM 26.6 °F 19.1 °F 21.2 °F 80% 30.16 in 10.0 mi NNE 6.9 mph - N/A   Overcast
8:32 AM 26.6 °F 19.1 °F 21.2 °F 80% 30.15 in 10.0 mi NE 6.9 mph - N/A   Overcast
8:51 AM 26.6 °F 20.0 °F 21.2 °F 80% 30.16 in 10.0 mi NE 5.8 mph - N/A   Overcast
9:11 AM 28.4 °F 21.2 °F 23.0 °F 80% 30.17 in 10.0 mi NE 6.9 mph - N/A   Overcast
9:31 AM 28.4 °F 21.2 °F 23.0 °F 80% 30.17 in 10.0 mi NE 6.9 mph - N/A   Overcast
9:51 AM 28.4 °F 21.2 °F 23.0 °F 80% 30.18 in 10.0 mi NE 6.9 mph - N/A   Overcast
10:12 AM 28.4 °F 21.2 °F 23.0 °F 80% 30.16 in 10.0 mi NE 6.9 mph - N/A   Overcast
10:31 AM 30.2 °F 22.6 °F 24.8 °F 80% 30.17 in 10.0 mi ENE 8.1 mph - N/A   Overcast
10:51 AM 30.2 °F 23.4 °F 24.8 °F 80% 30.18 in 10.0 mi ENE 6.9 mph - N/A   Overcast
11:12 AM 30.2 °F 25.4 °F 24.8 °F 80% 30.18 in 10.0 mi East 4.6 mph - N/A   Overcast
11:31 AM 30.2 °F 25.4 °F 24.8 °F 80% 30.18 in 7.0 mi East 4.6 mph - N/A   Overcast
11:51 AM 32.0 °F 28.7 °F 26.6 °F 80% 30.17 in 10.0 mi East 3.5 mph - N/A   Overcast
12:12 PM 32.0 °F - 26.6 °F 80% 30.16 in 7.0 mi Calm Calm - N/A   Overcast
12:31 PM 32.0 °F 27.5 °F 26.6 °F 80% 30.15 in 7.0 mi East 4.6 mph - N/A   Overcast
12:51 PM 32.0 °F 27.5 °F 26.6 °F 80% 30.15 in 7.0 mi East 4.6 mph - N/A   Overcast
1:12 PM 32.0 °F 26.4 °F 26.6 °F 80% 30.16 in 7.0 mi SE 5.8 mph - N/A   Overcast
1:31 PM 32.0 °F 26.4 °F 26.6 °F 80% 30.15 in 7.0 mi East 5.8 mph - N/A   Overcast
1:51 PM 33.8 °F - 28.4 °F 81% 30.12 in 7.0 mi Calm Calm - N/A   Overcast
2:12 PM 33.8 °F 27.0 °F 28.4 °F 81% 30.12 in 7.0 mi East 8.1 mph - N/A   Overcast
2:31 PM 33.8 °F 27.0 °F 28.4 °F 81% 30.11 in 7.0 mi ESE 8.1 mph - N/A   Overcast
2:51 PM 32.0 °F 24.8 °F 28.4 °F 87% 30.11 in 5.0 mi ESE 8.1 mph - N/A   Overcast
3:12 PM 32.0 °F 27.5 °F 28.4 °F 87% 30.14 in 5.0 mi East 4.6 mph - N/A   Overcast
3:31 PM 32.0 °F 26.4 °F 28.4 °F 87% 30.13 in 5.0 mi ESE 5.8 mph - N/A   Overcast
3:51 PM 32.0 °F - 26.6 °F 80% 30.13 in 5.0 mi Calm Calm - N/A   Haze
4:12 PM 32.0 °F 27.5 °F 26.6 °F 80% 30.12 in 7.0 mi East 4.6 mph - N/A   Overcast
4:31 PM 32.0 °F 24.8 °F 26.6 °F 80% 30.11 in 7.0 mi East 8.1 mph - N/A   Overcast
4:51 PM 32.0 °F 27.5 °F 26.6 °F 80% 30.11 in 7.0 mi ESE 4.6 mph - N/A   Overcast
5:12 PM 32.0 °F 26.4 °F 26.6 °F 80% 30.11 in 7.0 mi ESE 5.8 mph - N/A   Overcast
5:31 PM 32.0 °F 25.6 °F 26.6 °F 80% 30.10 in 7.0 mi ESE 6.9 mph - N/A   Overcast
5:51 PM 32.0 °F 23.6 °F 26.6 °F 80% 30.10 in 7.0 mi ESE 10.4 mph - N/A   Overcast
6:12 PM 32.0 °F 25.6 °F 26.6 °F 80% 30.10 in 7.0 mi ESE 6.9 mph - N/A   Overcast
6:31 PM 32.0 °F 24.2 °F 26.6 °F 80% 30.10 in 7.0 mi SE 9.2 mph 16.1 mph N/A   Overcast
6:51 PM 32.0 °F 26.4 °F 26.6 °F 80% 30.09 in 7.0 mi SE 5.8 mph - N/A   Overcast
7:12 PM 32.0 °F 24.8 °F 26.6 °F 80% 30.08 in 7.0 mi ESE 8.1 mph 16.1 mph N/A   Overcast
7:31 PM 32.0 °F 24.2 °F 26.6 °F 80% 30.08 in 7.0 mi ESE 9.2 mph - N/A   Overcast
7:51 PM 32.0 °F 24.8 °F 26.6 °F 80% 30.08 in 7.0 mi ESE 8.1 mph - N/A   Overcast
8:12 PM 32.0 °F 23.6 °F 28.4 °F 87% 30.06 in 5.0 mi ESE 10.4 mph - N/A   Overcast
8:31 PM 32.0 °F 23.6 °F 28.4 °F 87% 30.06 in 5.0 mi SE 10.4 mph 17.3 mph N/A   Overcast
8:51 PM 32.0 °F 23.0 °F 28.4 °F 87% 30.06 in 5.0 mi ESE 11.5 mph - N/A   Overcast
9:12 PM 32.0 °F 23.6 °F 28.4 °F 87% 30.05 in 5.0 mi ESE 10.4 mph - N/A   Overcast
9:31 PM 32.0 °F 24.8 °F 28.4 °F 87% 30.06 in 5.0 mi ESE 8.1 mph - N/A   Overcast
9:52 PM 30.2 °F 22.6 °F 28.4 °F 93% 30.06 in 5.0 mi ESE 8.1 mph - N/A   Overcast
10:11 PM 32.0 °F 24.8 °F 28.4 °F 87% 30.06 in 5.0 mi ESE 8.1 mph - N/A   Overcast
10:32 PM 32.0 °F 24.2 °F 28.4 °F 87% 30.05 in 4.0 mi SE 9.2 mph - N/A   Overcast
10:52 PM 32.0 °F 23.6 °F 28.4 °F 87% 30.04 in 4.0 mi ESE 10.4 mph - N/A   Overcast
11:11 PM 32.0 °F 24.2 °F 30.2 °F 93% 30.04 in 4.0 mi SE 9.2 mph - N/A   Overcast
11:32 PM 32.0 °F 23.6 °F 30.2 °F 93% 30.04 in 3.0 mi ESE 10.4 mph - N/A   Overcast
11:52 PM 32.0 °F 23.6 °F 30.2 °F 93% 30.04 in 3.0 mi SE 10.4 mph - N/A   Overcast